Time,TemperatureF,DewpointF,PressureIn,WindDirection,WindDirectionDegrees,WindSpeedMPH,WindSpeedGustMPH,Humidity,HourlyPrecipIn,Conditions,Clouds,dailyrainin,SoftwareType,DateUTC
2013-06-25 00:13:00,71.4,70.8,29.69,WSW,247,0.0,-999.0,98,-99.99,,,0.00,Acu-Link.com,2013-06-25 04:13:00,
2013-06-25 00:29:00,70.9,70.3,29.70,WNW,292,0.0,-999.0,98,-99.99,,,0.00,Acu-Link.com,2013-06-25 04:29:00,
2013-06-25 00:44:00,70.7,70.1,29.69,NW,315,0.0,-999.0,98,-99.99,,,0.00,Acu-Link.com,2013-06-25 04:44:00,
2013-06-25 00:59:00,70.3,69.7,29.69,West,270,0.0,-999.0,98,-99.99,,,0.00,Acu-Link.com,2013-06-25 04:59:00,
2013-06-25 01:14:00,69.8,69.2,29.68,NE,45,0.0,-999.0,98,-99.99,,,0.00,Acu-Link.com,2013-06-25 05:14:00,
2013-06-25 01:29:00,69.8,69.2,29.68,SW,225,0.0,-999.0,98,-99.99,,,0.00,Acu-Link.com,2013-06-25 05:29:00,
2013-06-25 01:44:00,69.4,68.8,29.65,North,0,0.0,-999.0,98,-99.99,,,0.00,Acu-Link.com,2013-06-25 05:44:00,
2013-06-25 01:59:00,68.9,68.3,29.67,WNW,292,0.0,-999.0,98,-99.99,,,0.00,Acu-Link.com,2013-06-25 05:59:00,
2013-06-25 02:14:00,69.1,68.5,29.66,SW,225,0.0,-999.0,98,-99.99,,,0.00,Acu-Link.com,2013-06-25 06:14:00,
2013-06-25 02:29:00,68.7,68.1,29.66,WNW,292,0.0,-999.0,98,-99.99,,,0.00,Acu-Link.com,2013-06-25 06:29:00,
2013-06-25 02:45:00,68.2,67.6,29.65,SSW,202,0.0,-999.0,98,-99.99,,,0.00,Acu-Link.com,2013-06-25 06:45:00,
2013-06-25 03:00:00,67.8,67.2,29.65,West,270,0.0,-999.0,98,-99.99,,,0.00,Acu-Link.com,2013-06-25 07:00:00,
2013-06-25 03:15:00,67.8,67.2,29.65,SSW,202,0.0,-999.0,98,-99.99,,,0.00,Acu-Link.com,2013-06-25 07:15:00,
2013-06-25 03:30:00,67.5,66.9,29.65,WNW,292,0.0,-999.0,98,-99.99,,,0.00,Acu-Link.com,2013-06-25 07:30:00,
2013-06-25 03:45:00,67.5,66.9,29.66,WNW,292,0.0,-999.0,98,-99.99,,,0.00,Acu-Link.com,2013-06-25 07:45:00,
2013-06-25 04:00:00,67.3,66.7,29.65,WNW,292,0.0,-999.0,98,-99.99,,,0.00,Acu-Link.com,2013-06-25 08:00:00,
2013-06-25 04:19:00,67.1,66.5,29.64,WNW,292,0.0,-999.0,98,-99.99,,,0.00,Acu-Link.com,2013-06-25 08:19:00,
2013-06-25 04:34:00,66.9,66.3,29.64,WNW,292,0.0,-999.0,98,-99.99,,,0.00,Acu-Link.com,2013-06-25 08:34:00,
2013-06-25 04:49:00,66.7,66.1,29.64,WNW,292,0.0,-999.0,98,-99.99,,,0.00,Acu-Link.com,2013-06-25 08:49:00,
2013-06-25 05:05:00,66.6,66.0,29.64,South,180,0.0,-999.0,98,-99.99,,,0.00,Acu-Link.com,2013-06-25 09:05:00,
2013-06-25 05:20:00,66.6,66.0,29.65,South,180,0.0,-999.0,98,-99.99,,,0.00,Acu-Link.com,2013-06-25 09:20:00,
2013-06-25 05:35:00,66.4,65.8,29.64,South,180,0.0,-999.0,98,-99.99,,,0.01,Acu-Link.com,2013-06-25 09:35:00,
2013-06-25 05:50:00,66.4,65.8,29.64,South,180,0.0,-999.0,98,-99.99,,,0.01,Acu-Link.com,2013-06-25 09:50:00,
2013-06-25 06:05:00,66.9,66.3,29.65,South,180,0.0,-999.0,98,-99.99,,,0.01,Acu-Link.com,2013-06-25 10:05:00,
2013-06-25 06:20:00,67.8,67.2,29.65,West,270,0.0,-999.0,98,-99.99,,,0.01,Acu-Link.com,2013-06-25 10:20:00,
2013-06-25 06:35:00,69.1,68.5,29.65,SW,225,0.0,-999.0,98,-99.99,,,0.01,Acu-Link.com,2013-06-25 10:35:00,
2013-06-25 06:50:00,70.2,69.6,29.66,SW,225,0.0,-999.0,98,-99.99,,,0.01,Acu-Link.com,2013-06-25 10:50:00,
2013-06-25 07:05:00,71.4,70.8,29.64,West,270,0.0,-999.0,98,-99.99,,,0.01,Acu-Link.com,2013-06-25 11:05:00,
2013-06-25 07:20:00,72.7,72.1,29.65,WSW,247,0.0,-999.0,98,-99.99,,,0.01,Acu-Link.com,2013-06-25 11:20:00,
2013-06-25 07:36:00,73.6,73.0,29.66,NW,315,0.0,-999.0,98,-99.99,,,0.01,Acu-Link.com,2013-06-25 11:36:00,
2013-06-25 07:51:00,74.7,74.1,29.65,ENE,67,0.0,-999.0,98,-99.99,,,0.01,Acu-Link.com,2013-06-25 11:51:00,
2013-06-25 08:06:00,75.7,75.1,29.65,SW,225,2.2,-999.0,98,-99.99,,,0.01,Acu-Link.com,2013-06-25 12:06:00,
2013-06-25 08:21:00,77.7,77.1,29.65,West,270,0.0,-999.0,98,-99.99,,,0.01,Acu-Link.com,2013-06-25 12:21:00,
2013-06-25 08:36:00,77.2,76.6,29.64,ESE,112,1.7,-999.0,98,-99.99,,,0.01,Acu-Link.com,2013-06-25 12:36:00,
2013-06-25 08:51:00,78.6,78.0,29.64,ESE,112,1.7,-999.0,98,-99.99,,,0.01,Acu-Link.com,2013-06-25 12:51:00,
2013-06-25 09:06:00,79.7,79.1,29.63,WSW,247,2.2,-999.0,98,-99.99,,,0.01,Acu-Link.com,2013-06-25 13:06:00,
2013-06-25 09:35:00,79.2,78.6,29.63,West,270,1.7,-999.0,98,-99.99,,,0.01,Acu-Link.com,2013-06-25 13:35:00,
2013-06-25 09:50:00,83.3,82.7,29.63,South,180,0.0,-999.0,98,-99.99,,,0.01,Acu-Link.com,2013-06-25 13:50:00,
2013-06-25 10:17:00,84.4,83.8,29.63,South,180,2.7,-999.0,98,-99.99,,,0.01,Acu-Link.com,2013-06-25 14:17:00,
2013-06-25 10:36:00,84.4,83.8,29.63,SW,225,3.2,-999.0,98,-99.99,,,0.01,Acu-Link.com,2013-06-25 14:36:00,
2013-06-25 10:52:00,85.6,85.0,29.63,SSW,202,3.2,-999.0,98,-99.99,,,0.01,Acu-Link.com,2013-06-25 14:52:00,
2013-06-25 11:07:00,87.6,87.0,29.62,NE,45,1.7,-999.0,98,-99.99,,,0.01,Acu-Link.com,2013-06-25 15:07:00,
2013-06-25 11:23:00,88.0,87.4,29.62,SSE,157,2.7,-999.0,98,-99.99,,,0.01,Acu-Link.com,2013-06-25 15:23:00,
2013-06-25 12:05:00,90.1,89.5,29.61,NE,45,3.7,-999.0,98,-99.99,,,0.01,Acu-Link.com,2013-06-25 16:05:00,
2013-06-25 12:29:00,90.1,89.5,29.59,SW,225,2.7,-999.0,98,-99.99,,,0.01,Acu-Link.com,2013-06-25 16:29:00,
2013-06-25 12:48:00,91.0,90.4,29.59,ENE,67,2.2,-999.0,98,-99.99,,,0.01,Acu-Link.com,2013-06-25 16:48:00,
2013-06-25 13:23:00,90.0,89.4,29.57,ENE,67,3.2,-999.0,98,-99.99,,,0.01,Acu-Link.com,2013-06-25 17:23:00,
2013-06-25 13:41:00,91.2,90.6,29.57,SSE,157,2.2,-999.0,98,-99.99,,,0.01,Acu-Link.com,2013-06-25 17:41:00,
2013-06-25 14:03:00,92.1,91.4,29.57,NE,45,5.3,-999.0,98,-99.99,,,0.01,Acu-Link.com,2013-06-25 18:03:00,
2013-06-25 14:30:00,92.1,91.4,29.56,SSE,157,2.2,-999.0,98,-99.99,,,0.01,Acu-Link.com,2013-06-25 18:30:00,
2013-06-25 15:01:00,92.1,91.4,29.53,SW,225,3.2,-999.0,98,-99.99,,,0.01,Acu-Link.com,2013-06-25 19:01:00,
2013-06-25 15:24:00,92.8,92.1,29.53,SW,225,4.2,-999.0,98,-99.99,,,0.01,Acu-Link.com,2013-06-25 19:24:00,
2013-06-25 15:45:00,92.8,92.1,29.54,NNE,22,2.2,-999.0,98,-99.99,,,0.01,Acu-Link.com,2013-06-25 19:45:00,
2013-06-25 16:00:00,89.6,89.0,29.54,West,270,0.0,-999.0,98,-99.99,,,0.01,Acu-Link.com,2013-06-25 20:00:00,
2013-06-25 16:15:00,89.4,88.8,29.55,West,270,2.7,-999.0,98,-99.99,,,0.01,Acu-Link.com,2013-06-25 20:15:00,
2013-06-25 16:31:00,80.4,79.8,29.57,NNW,337,4.7,-999.0,98,-99.99,,,0.02,Acu-Link.com,2013-06-25 20:31:00,
2013-06-25 16:46:00,77.5,76.9,29.55,SW,225,1.7,-999.0,98,-99.99,,,0.15,Acu-Link.com,2013-06-25 20:46:00,
2013-06-25 17:01:00,76.3,75.7,29.56,SW,225,0.0,-999.0,98,-99.99,,,0.18,Acu-Link.com,2013-06-25 21:01:00,
2013-06-25 17:16:00,75.9,75.3,29.53,SW,225,0.0,-999.0,98,-99.99,,,0.18,Acu-Link.com,2013-06-25 21:16:00,
2013-06-25 17:46:00,78.1,77.5,29.52,West,270,0.0,-999.0,98,-99.99,,,0.18,Acu-Link.com,2013-06-25 21:46:00,
2013-06-25 18:01:00,79.0,78.4,29.50,NE,45,0.0,-999.0,98,-99.99,,,0.18,Acu-Link.com,2013-06-25 22:01:00,
2013-06-25 18:16:00,80.1,79.5,29.52,WSW,247,0.0,-999.0,98,-99.99,,,0.18,Acu-Link.com,2013-06-25 22:16:00,
2013-06-25 18:31:00,81.5,80.9,29.50,West,270,1.7,-999.0,98,-99.99,,,0.18,Acu-Link.com,2013-06-25 22:31:00,
2013-06-25 18:47:00,81.1,80.5,29.52,SW,225,1.7,-999.0,98,-99.99,,,0.18,Acu-Link.com,2013-06-25 22:47:00,
2013-06-25 19:02:00,81.0,80.4,29.52,SSW,202,0.0,-999.0,98,-99.99,,,0.18,Acu-Link.com,2013-06-25 23:02:00,
2013-06-25 19:17:00,80.6,80.0,29.51,West,270,0.0,-999.0,98,-99.99,,,0.18,Acu-Link.com,2013-06-25 23:17:00,
2013-06-25 19:32:00,79.5,78.9,29.51,SSW,202,2.7,-999.0,98,-99.99,,,0.18,Acu-Link.com,2013-06-25 23:32:00,
2013-06-25 19:47:00,78.6,78.0,29.52,NNW,337,0.0,-999.0,98,-99.99,,,0.18,Acu-Link.com,2013-06-25 23:47:00,
2013-06-25 20:02:00,78.1,77.5,29.52,NNE,22,0.0,-999.0,98,-99.99,,,0.18,Acu-Link.com,2013-06-26 00:02:00,
2013-06-25 20:17:00,77.5,76.9,29.53,West,270,0.0,-999.0,98,-99.99,,,0.18,Acu-Link.com,2013-06-26 00:17:00,
2013-06-25 20:32:00,77.5,76.9,29.53,NE,45,0.0,-999.0,98,-99.99,,,0.18,Acu-Link.com,2013-06-26 00:32:00,
2013-06-25 20:47:00,77.4,76.8,29.53,South,180,0.0,-999.0,98,-99.99,,,0.18,Acu-Link.com,2013-06-26 00:47:00,
2013-06-25 21:03:00,77.0,76.4,29.54,SW,225,2.2,-999.0,98,-99.99,,,0.18,Acu-Link.com,2013-06-26 01:03:00,
2013-06-25 21:18:00,76.6,76.0,29.54,SSW,202,0.0,-999.0,98,-99.99,,,0.18,Acu-Link.com,2013-06-26 01:18:00,
2013-06-25 21:33:00,76.3,75.7,29.54,WSW,247,0.0,-999.0,98,-99.99,,,0.18,Acu-Link.com,2013-06-26 01:33:00,
2013-06-25 21:48:00,75.9,75.3,29.55,West,270,0.0,-999.0,98,-99.99,,,0.18,Acu-Link.com,2013-06-26 01:48:00,
2013-06-25 22:03:00,75.6,75.0,29.56,SW,225,0.0,-999.0,98,-99.99,,,0.18,Acu-Link.com,2013-06-26 02:03:00,
2013-06-25 22:18:00,75.2,74.6,29.55,NNW,337,0.0,-999.0,98,-99.99,,,0.18,Acu-Link.com,2013-06-26 02:18:00,
2013-06-25 22:33:00,75.6,75.0,29.54,ESE,112,0.0,-999.0,98,-99.99,,,0.18,Acu-Link.com,2013-06-26 02:33:00,
2013-06-25 22:48:00,75.2,74.6,29.55,NE,45,0.0,-999.0,98,-99.99,,,0.18,Acu-Link.com,2013-06-26 02:48:00,
2013-06-25 23:03:00,75.2,74.6,29.55,SW,225,0.0,-999.0,98,-99.99,,,0.19,Acu-Link.com,2013-06-26 03:03:00,
2013-06-25 23:19:00,74.3,73.7,29.55,WSW,247,0.0,-999.0,98,-99.99,,,0.20,Acu-Link.com,2013-06-26 03:19:00,
2013-06-25 23:34:00,74.3,73.7,29.54,North,0,0.0,-999.0,98,-99.99,,,0.20,Acu-Link.com,2013-06-26 03:34:00,
2013-06-25 23:49:00,73.8,73.2,29.53,NNW,337,0.0,-999.0,98,-99.99,,,0.20,Acu-Link.com,2013-06-26 03:49:00,